Tracking 19177 objects as of 24-May-2018
HD Live streaming from Space Station
objects crossing your sky now

SUPERVIEW-1 04

Track SUPERVIEW-1 04 now!
10-day predictions


NORAD ID: 43100
Int'l Code: 2018-002B
Perigee: 522.5 km
Apogee: 539.6 km
Inclination: 97.6 °
Period: 95.1 minutes
Semi major axis: 6902 km
RCS: Unknown
Launch date: January 9, 2018
Source: People's Republic of China (PRC)
Launch site: Taiyaun Space Center, China (TSC)
aabbcc
Your satellite tracking list
Your tracking list is empty




NASA's NSSDC Master Catalog

Two Line Element Set (TLE):
1 43100U 18002B   18143.44494213  .00000420  00000-0  26757-4 0  9994
2 43100  97.5668 219.9333 0012379 199.0449 355.5370 15.14022285 20313
Source of the keplerian elements: AFSPC